Location: Waltman Observatory
(32.5145°N, 90.4450°W)
Time: 02:41:39
(UTC-05:00)

Amateur Radio Satellites - All Passes

Search period start: 23 April 2014 02:11
Search period end: 24 April 2014 02:11
Location: Waltman Observatory, 32.5145°N, 90.4450°W

Satellite Date Start Highest point End Downlink Frequencies (MHz)
Time Altitude Azimuth
Uribyol 2 23 Apr 02:23:35 02:28:03 29° 97° (E) 02:32:29 436.500 FM
AO-Echo 23 Apr 02:43:30 02:47:44 32° 98° (E) 02:51:55 ?
AO-27 23 Apr 03:05:15 03:10:27 77° 103° (ESE) 03:15:37 436.795 MHz FM
OPAL 23 Apr 03:10:41 03:15:41 75° 256° (WSW) 03:20:48 ?
Oscar 19 23 Apr 03:11:15 03:16:13 47° 287° (WNW) 03:21:09 437.125 CW, 437.150 USB
ITAMSAT 1 23 Apr 03:14:56 03:20:08 87° 283° (WNW) 03:25:18 435.822 SSB
Gurwin Techsat 1B 23 Apr 03:19:51 03:24:27 30° 97° (E) 03:29:02 435.225 FM
Oscar 16 23 Apr 03:20:27 03:25:08 35° 289° (WNW) 03:29:49 437.025 USB, Beacon 2401.1428
UOSAT-12 23 Apr 03:47:46 03:49:47 13° 253° (WSW) 03:51:47 437.025 FM, 437.400 FM
Uribyol 2 23 Apr 04:03:05 04:07:23 27° 291° (WNW) 04:11:41 436.500 FM
TMSAT-1 23 Apr 04:05:02 04:10:16 61° 101° (E) 04:15:29 436.925 FM
KITSAT 1 23 Apr 04:05:26 04:11:35 23° 312° (NW) 04:17:47 435.175 FM
AO-Echo 23 Apr 04:22:55 04:26:15 20° 292° (WNW) 04:29:35 ?
AO-7 23 Apr 04:41:53 04:49:14 34° 99° (E) 04:56:33 29.400 - 29.500 MHz
Uosat F 23 Apr 04:43:34 04:48:24 48° 100° (E) 04:53:12 435.120 FM
AO-27 23 Apr 04:48:18 04:49:15 11° 297° (WNW) 04:50:13 436.795 MHz FM
JAS-1B 23 Apr 04:53:29 04:59:12 78° 103° (ESE) 05:05:29 435.800 - 435.900 CW/SSB
RS-15 23 Apr 04:54:05 05:02:58 27° 104° (ESE) 05:11:33 29.354 - 29.394 USB, Beacon 29.352 USB
Gurwin Techsat 1B 23 Apr 04:59:52 05:04:16 27° 291° (WNW) 05:08:39 435.225 FM
TMSAT-1 23 Apr 05:47:01 05:49:37 14° 295° (WNW) 05:52:14 436.925 FM
MaSat-1 23 Apr 05:51:49 05:53:12 12° 64° (ENE) 05:54:40 437.345 MHz
PANSAT 23 Apr 05:56:52 05:59:29 17° 159° (SSE) 06:02:07 not established
STRAND 1 23 Apr 05:57:01 06:00:30 19° 67° (ENE) 06:03:59 ?
Uosat F 23 Apr 06:23:50 06:26:44 16° 294° (WNW) 06:29:39 435.120 FM
Hamsat 23 Apr 06:31:26 06:35:03 25° 96° (E) 06:38:39 145.90 MHz
AO-7 23 Apr 06:34:15 06:42:01 46° 294° (WNW) 06:49:47 29.400 - 29.500 MHz
JAS-1B 23 Apr 06:48:08 06:49:16 11° 297° (WNW) 06:50:25 435.800 - 435.900 CW/SSB
RS-15 23 Apr 07:03:01 07:14:22 69° 300° (WNW) 07:25:22 29.354 - 29.394 USB, Beacon 29.352 USB
JAS-2 23 Apr 07:21:30 07:26:34 32° 99° (E) 07:32:07 435.800 - 435.900 CW/SSB, 435.910 FM
MaSat-1 23 Apr 07:28:29 07:31:28 29° 250° (WSW) 07:34:57 437.345 MHz
STRAND 1 23 Apr 07:34:32 07:39:20 41° 261° (W) 07:44:09 ?
PANSAT 23 Apr 07:35:41 07:39:18 38° 171° (S) 07:42:55 not established
Hamsat 23 Apr 08:07:30 08:10:52 22° 289° (WNW) 08:14:13 145.90 MHz
SO-67 23 Apr 08:23:05 08:26:34 71° 283° (WNW) 08:30:02 435.3500 MHz FM
Sapphire 23 Apr 08:25:00 08:28:22 16° 52° (NE) 08:31:43 437.095 MHz 1200 baud AX-25 AFSK
HO-68 23 Apr 08:37:44 08:39:39 11° 91° (E) 08:41:34 435.675 MHz FM
Saudisat 1A 23 Apr 09:03:42 09:06:37 17° 109° (ESE) 09:09:33 436.775 MHz
JAS-2 23 Apr 09:06:43 09:11:32 30° 289° (WNW) 09:16:48 435.800 - 435.900 CW/SSB, 435.910 FM
PCSat 23 Apr 09:08:12 09:13:20 42° 60° (ENE) 09:18:25 145.825 MHz
PANSAT 23 Apr 09:15:34 09:19:17 44° 184° (S) 09:22:59 not established
RS-15 23 Apr 09:22:09 09:29:07 18° 325° (NW) 09:36:03 29.354 - 29.394 USB, Beacon 29.352 USB
Oscar 11 23 Apr 09:56:35 09:59:44 19° 95° (E) 10:02:51 145.825 FM, Beacon 2401.500 USB
Sapphire 23 Apr 10:06:51 10:12:10 60° 248° (WSW) 10:17:28 437.095 MHz 1200 baud AX-25 AFSK
KITSAT 1 23 Apr 10:07:32 10:12:33 17° 44° (NE) 10:17:32 435.175 FM
HO-68 23 Apr 10:20:51 10:28:04 87° 105° (ESE) 10:35:16 435.675 MHz FM
Saudisat 1A 23 Apr 10:41:47 10:45:54 37° 303° (WNW) 10:50:04 436.775 MHz
PCSat 23 Apr 10:52:28 10:56:23 21° 254° (WSW) 11:00:18 145.825 MHz
PANSAT 23 Apr 10:55:56 10:59:11 25° 196° (SSW) 11:02:25 not established
Oscar 10/S400 23 Apr 11:08:21 12:56:33 52° 252° (WSW) 18:58:25 145.825 - 145.975 CW/USB, Beacon 145.810 USB
Oscar 11 23 Apr 11:32:09 11:35:53 28° 288° (WNW) 11:39:36 145.825 FM, Beacon 2401.500 USB
FUNcube-1 23 Apr 11:34:05 11:38:25 87° 101° (ESE) 11:42:51 145.950 - 145.970 MHz USB
KITSAT 1 23 Apr 12:01:00 12:09:08 84° 64° (ENE) 12:17:11 435.175 FM
HO-68 23 Apr 12:11:07 12:14:48 15° 301° (WNW) 12:18:30 435.675 MHz FM
Oscar 19 23 Apr 12:46:38 12:49:35 16° 66° (ENE) 12:52:33 437.125 CW, 437.150 USB
Oscar 16 23 Apr 12:54:48 12:58:32 21° 68° (ENE) 13:02:17 437.025 USB, Beacon 2401.1428
ISS 23 Apr 13:07:10 13:10:21 46° 132° (SE) 13:13:34 145.800 FM
Uribyol 2 23 Apr 13:37:19 13:41:38 28° 70° (ENE) 13:45:57 436.500 FM
AO-Echo 23 Apr 13:51:50 13:56:17 29° 71° (ENE) 14:00:39 ?
RS-15 23 Apr 13:59:07 14:07:23 23° 41° (NE) 14:15:43 29.354 - 29.394 USB, Beacon 29.352 USB
KITSAT 1 23 Apr 13:59:10 14:03:29 16° 259° (WSW) 14:07:49 435.175 FM
SO-50 23 Apr 14:14:24 14:18:46 56° 115° (ESE) 14:23:10 436.795 FM
AO-27 23 Apr 14:18:50 14:24:00 73° 75° (ENE) 14:29:10 436.795 MHz FM
Oscar 19 23 Apr 14:23:28 14:28:27 51° 260° (W) 14:33:28 437.125 CW, 437.150 USB
ITAMSAT 1 23 Apr 14:28:21 14:33:32 89° 76° (ENE) 14:38:44 435.822 SSB
Oscar 16 23 Apr 14:32:51 14:37:35 38° 261° (W) 14:42:22 437.025 USB, Beacon 2401.1428
Gurwin Techsat 1B 23 Apr 14:36:37 14:41:11 30° 70° (ENE) 14:45:46 435.225 FM
ISS 23 Apr 14:45:08 14:47:15 16° 327° (NNW) 14:49:22 145.800 FM
Uribyol 2 23 Apr 15:16:38 15:20:59 28° 263° (W) 15:25:21 436.500 FM
TMSAT-1 23 Apr 15:21:14 15:26:25 60° 74° (ENE) 15:31:37 436.925 FM
OPAL 23 Apr 15:25:18 15:30:16 44° 101° (ESE) 15:35:12 ?
AO-Echo 23 Apr 15:30:35 15:34:56 27° 263° (W) 15:39:14 ?
JAS-1B 23 Apr 15:32:54 15:40:31 47° 72° (ENE) 15:46:56 435.800 - 435.900 CW/SSB
AO-7 23 Apr 15:36:22 15:43:22 32° 63° (ENE) 15:50:21 29.400 - 29.500 MHz
Uosat F 23 Apr 15:52:26 15:57:07 41° 72° (ENE) 16:01:49 435.120 FM
SO-50 23 Apr 15:57:22 15:59:39 14° 311° (NW) 16:01:57 436.795 FM
RS-15 23 Apr 16:10:15 16:21:17 89° 63° (ENE) 16:32:41 29.354 - 29.394 USB, Beacon 29.352 USB
UOSAT-12 23 Apr 16:12:25 16:16:44 47° 114° (ESE) 16:21:09 437.025 FM, 437.400 FM
Gurwin Techsat 1B 23 Apr 16:16:41 16:21:04 26° 264° (W) 16:25:29 435.225 FM
TMSAT-1 23 Apr 17:04:21 17:06:39 13° 268° (W) 17:08:57 436.925 FM
OPAL 23 Apr 17:05:10 17:08:46 19° 295° (WNW) 17:12:21 ?
Hamsat 23 Apr 17:23:37 17:24:11 10° 67° (ENE) 17:24:45 145.90 MHz
JAS-1B 23 Apr 17:24:24 17:31:03 27° 261° (W) 17:36:53 435.800 - 435.900 CW/SSB
AO-7 23 Apr 17:27:50 17:35:45 50° 258° (WSW) 17:43:43 29.400 - 29.500 MHz
Uosat F 23 Apr 17:32:43 17:36:01 18° 265° (W) 17:39:19 435.120 FM
UOSAT-12 23 Apr 17:54:13 17:57:07 16° 310° (NW) 18:00:04 437.025 FM, 437.400 FM
RS-15 23 Apr 18:25:39 18:32:12 18° 259° (W) 18:38:55 29.354 - 29.394 USB, Beacon 29.352 USB
SO-67 23 Apr 18:53:20 18:55:43 18° 72° (ENE) 18:58:06 435.3500 MHz FM
Hamsat 23 Apr 18:55:34 18:59:39 52° 260° (W) 19:03:47 145.90 MHz
Saudisat 1A 23 Apr 19:12:42 19:16:56 45° 58° (ENE) 19:21:06 436.775 MHz
JAS-2 23 Apr 19:13:50 19:19:37 67° 75° (ENE) 19:24:54 435.800 - 435.900 CW/SSB, 435.910 FM
ISS 23 Apr 19:42:03 19:42:07 10° 28° (NNE) 19:42:10 145.800 FM
STRAND 1 23 Apr 19:49:27 19:54:34 84° 284° (WNW) 19:59:39 ?
MaSat-1 23 Apr 19:50:21 19:52:01 14° 109° (ESE) 19:53:34 437.345 MHz
SO-67 23 Apr 20:26:12 20:28:42 19° 264° (W) 20:31:13 435.3500 MHz FM
HO-68 23 Apr 20:44:31 20:51:04 41° 68° (ENE) 20:57:39 435.675 MHz FM
Saudisat 1A 23 Apr 20:54:00 20:56:05 13° 252° (WSW) 20:58:08 436.775 MHz
JAS-2 23 Apr 21:03:18 21:04:57 11° 266° (W) 21:06:35 435.800 - 435.900 CW/SSB, 435.910 FM
ISS 23 Apr 21:15:57 21:19:18 80° 44° (NE) 21:22:38 145.800 FM
MaSat-1 23 Apr 21:28:56 21:30:12 12° 296° (WNW) 21:31:26 437.345 MHz
Oscar 11 23 Apr 22:22:00 22:26:16 64° 259° (W) 22:30:33 145.825 FM, Beacon 2401.500 USB
FUNcube-1 23 Apr 22:26:37 22:30:29 37° 74° (ENE) 22:34:19 145.950 - 145.970 MHz USB
HO-68 23 Apr 22:32:37 22:38:45 31° 262° (W) 22:44:56 435.675 MHz FM
SO-50 23 Apr 22:51:22 22:54:22 17° 51° (NE) 22:57:23 436.795 FM
Sapphire 23 Apr 23:01:14 23:06:04 34° 108° (ESE) 23:10:54 437.095 MHz 1200 baud AX-25 AFSK
PCSat 23 Apr 23:44:57 23:50:21 83° 295° (WNW) 23:55:48 145.825 MHz
FUNcube-1 24 Apr 00:05:05 00:07:00 13° 266° (W) 00:08:56 145.950 - 145.970 MHz USB
SO-50 24 Apr 00:30:39 00:35:10 48° 246° (WSW) 00:39:43 436.795 FM
KITSAT 1 24 Apr 00:32:02 00:37:04 18° 102° (ESE) 00:42:07 435.175 FM
Sapphire 24 Apr 00:44:58 00:49:28 26° 303° (WNW) 00:54:00 437.095 MHz 1200 baud AX-25 AFSK
UOSAT-12 24 Apr 00:47:45 00:50:14 14° 49° (NE) 00:52:42 437.025 FM, 437.400 FM
PCSat 24 Apr 01:33:46 01:34:34 10° 312° (NW) 01:35:22 145.825 MHz
Uribyol 2 24 Apr 01:55:50 01:58:31 14° 93° (E) 02:01:12 436.500 FM
AO-Echo 24 Apr 02:05:57 02:07:26 11° 93° (E) 02:08:54 ?
